Wind_Speed
23 26 26 26 25 26 22 22 21 21 18 20 21 12 6 10 10 11 15 16 15 15 14 13 11 12 10 9 9 11 13 15 17 18 16 19 19 21 16 21 22 19 17
19 24 27 25 25 23 23 20 19 19 18 20 21 21 19 18 17 15 14 14 13 12 14 14 10 9 10 12 13 12 12 14 17 23 19 22 24 23 21 19 19 15 16
21 19 22 22 24 23 21 21 20 21 24 23 23 23 22 21 18 15 14 14 14 9 8 9 11 12 13 10 12 13 10 9 12 15 17 16 18 16 17 17 19 20 18
18 22 22 19 15 15 20 26 27 26 24 22 23 24 22 19 17 15 15 12 10 9 9 10 10 10 11 9 9 12 11 10 11 14 16 15 15 14 15 14 16 18 20
13 14 15 15 8 1 3 8 10 17 17 15 17 17 17 11 7 6 5 7 6 9 9 10 9 14 16 20 18 13 16 16 15 15 17 16 15 16 14 14 18 20 20
21 17 15 16 14 15 11 6 4 7 12 12 11 10 10 6 10 7 7 10 9 14 16 15 14 14 11 14 17 18 18 17 18 16 16 18 23 24 22 20 21 20 21
18 24 15 17 12 10 12 12 19 20 15 16 16 16 13 14 12 10 12 12 10 15 16 15 12 9 17 10 12 17 14 13 17 18 21 19 17 16 18 20 19 19 20
14 9 6 6 9 9 12 15 20 16 11 10 11 14 15 16 19 19 14 12 15 14 22 19 16 15 13 18 20 20 16 14 13 15 20 23 20 19 20 19 20 23 24
9 9 7 5 3 5 6 8 8 8 9 13 14 13 10 11 11 12 11 12 13 17 15 17 17 19 19 20 22 23 24 24 16 14 21 22 19 21 21 23 24 21 24
9 9 9 9 9 8 5 5 6 6 6 6 8 9 9 9 11 11 11 10 12 14 16 16 14 14 18 22 26 28 29 26 22 23 28 28 26 20 21 19 16 17 21
9 7 10 8 5 3 4 3 3 4 7 6 7 8 8 8 11 13 13 12 10 10 11 11 12 17 22 27 29 29 29 29 30 29 25 21 20 19 20 23 24 22 20
7 7 5 4 4 2 4 6 6 7 5 8 9 7 6 8 11 12 13 14 15 16 15 13 15 22 25 28 28 27 25 26 28 22 21 21 21 20 20 19 17 15 18
6 3 2 3 4 4 4 5 3 8 6 6 6 6 6 7 8 13 15 16 15 12 12 16 19 22 24 24 21 21 22 24 21 20 22 23 22 21 22 23 24 28 30
2 1 3 3 5 4 2 4 4 5 5 5 6 7 6 7 5 3 6 9 12 13 15 18 25 23 19 20 20 19 17 18 19 22 24 25 24 23 23 22 24 24 26
1 0 1 1 2 4 4 3 4 8 10 8 6 7 7 7 11 13 16 14 13 17 22 25 20 19 18 17 17 17 18 16 17 18 19 20 21 24 24 24 25 25 26
2 1 2 1 3 4 5 7 12 11 15 14 12 10 6 10 12 12 14 16 18 22 24 20 16 16 18 17 21 22 19 21 21 22 23 21 21 22 25 23 22 24 24
2 1 2 3 4 5 6 7 8 11 12 13 12 15 14 10 12 15 18 21 23 16 20 16 18 20 18 20 21 21 22 22 22 22 23 22 24 25 23 22 24 26 30
2 3 1 4 5 6 7 10 9 10 10 10 13 14 15 15 17 19 20 22 20 18 18 20 21 21 21 20 22 23 23 24 24 23 23 22 20 24 25 21 24 26 27
2 3 4 5 7 8 10 7 10 11 11 11 13 15 17 20 19 20 21 22 21 22 22 23 23 22 22 20 21 26 27 27 25 28 25 25 23 23 21 25 27 24 28
6 7 6 6 8 10 9 11 13 12 13 14 16 17 16 17 19 19 20 19 22 23 23 24 25 23 21 22 28 29 32 34 29 27 28 28 27 28 29 26 26 24 24
6 8 8 11 12 14 13 15 19 14 14 16 17 18 20 17 18 17 17 15 20 23 22 22 25 23 23 29 29 31 29 27 26 27 28 26 26 25 28 30 31 24 23
7 10 15 19 18 18 18 18 19 18 16 18 18 17 19 13 14 14 18 21 21 22 22 24 24 24 28 26 26 26 26 25 24 23 24 25 26 28 30 30 31 31 31
11 15 17 18 14 10 12 17 23 23 18 17 15 14 13 14 14 18 19 21 21 25 23 23 24 24 23 22 21 20 21 21 21 20 21 21 22 22 22 23 25 29 30
15 17 13 13 15 20 18 21 18 16 15 14 16 13 12 13 16 17 17 18 16 19 18 18 19 20 20 20 19 17 20 20 20 20 21 23 25 25 25 26 27 26 27
13 13 15 17 15 15 17 14 15 10 12 11 9 10 12 13 15 15 15 15 15 16 18 17 17 17 16 16 16 15 15 16 18 20 22 23 23 24 25 26 27 27 26
13 9 9 11 10 9 10 10 7 6 6 9 11 11 13 13 15 15 14 16 22 18 17 16 17 15 15 18 16 15 15 16 17 19 22 23 25 27 28 28 28 29 29
Wind_Direction
215 213 207 209 212 207 208 213 209 215 220 240 255 260 243 240 245 248 251 255 248 255 252 254 271 268 264 258 263 273 268 258 275 275 280 280 286 277 263 263 265 267 270
205 220 211 206 200 204 204 211 212 214 221 225 235 239 239 235 236 239 256 254 259 255 270 276 279 270 260 270 284 276 258 252 271 273 274 271 274 267 268 258 261 266 270
165 242 218 212 199 201 205 206 214 215 220 230 236 240 239 239 244 247 241 251 263 267 263 261 266 276 283 285 271 263 272 276 276 282 284 291 293 278 271 271 278 281 270
270 225 210 202 196 203 209 218 223 228 232 230 236 240 242 241 241 234 234 238 253 276 284 286 282 284 285 283 280 281 291 293 280 284 286 288 288 284 280 268 270 279 282
174 206 160 128 146 114 283 252 236 225 228 225 221 221 225 218 208 221 226 215 246 274 284 279 287 264 270 280 279 266 260 272 280 281 283 283 282 287 277 268 275 273 268
186 160 154 141 81 45 13 329 217 209 232 228 208 203 218 218 217 229 263 271 267 280 289 290 288 310 312 280 296 297 295 297 293 286 279 274 266 267 276 276 278 279 279
168 151 158 224 253 249 344 273 261 257 268 264 260 248 235 240 243 261 290 299 312 306 288 293 289 275 265 280 278 284 300 302 299 304 297 297 288 281 272 266 272 267 271
153 154 163 217 228 218 228 250 249 259 257 249 245 245 244 254 265 272 265 281 291 282 294 284 285 286 289 286 291 296 296 293 292 289 294 293 284 278 269 267 266 272 277
137 129 144 160 220 269 229 238 238 227 228 230 237 249 257 264 265 268 273 276 275 277 281 289 294 296 299 295 297 296 295 293 290 281 273 273 277 279 290 278 269 272 275
126 129 129 132 156 159 183 225 231 234 247 239 263 257 257 257 272 273 276 276 274 279 288 290 299 296 288 289 300 304 303 306 298 287 280 281 281 283 284 279 279 266 277
118 109 109 106 90 136 161 184 208 235 229 248 250 262 276 286 280 291 292 295 288 291 296 300 299 292 287 289 292 293 297 300 298 300 297 291 289 284 274 278 277 266 260
113 105 98 118 129 318 296 288 276 283 303 294 309 314 290 282 307 317 314 305 295 295 297 296 285 273 274 281 286 294 296 295 299 294 291 289 286 280 273 267 273 246 250
106 88 39 355 323 313 303 308 330 324 326 299 280 281 281 283 297 283 297 313 316 316 302 290 291 291 295 298 300 305 309 300 290 286 287 286 284 282 279 275 273 277 284
99 38 335 336 330 335 14 324 328 306 295 296 293 291 288 287 266 285 305 319 320 323 295 298 300 308 308 309 304 302 301 291 286 287 286 287 288 287 282 279 275 274 274
236 131 73 295 323 305 325 288 322 305 320 308 286 282 291 282 277 286 297 304 302 304 307 313 310 309 303 299 296 289 283 288 291 290 283 286 287 283 282 281 279 278 276
156 101 239 225 303 304 308 311 314 322 339 349 353 349 311 289 293 300 308 317 318 313 312 310 310 309 307 300 301 297 298 291 291 297 298 288 279 289 291 294 291 284 288
163 243 301 351 309 313 313 312 307 308 321 327 333 343 350 339 335 332 327 325 329 324 314 310 308 304 296 297 298 299 298 294 291 295 291 287 287 280 276 285 286 281 284
187 224 253 294 302 306 312 309 310 307 307 307 315 322 327 328 329 329 331 324 327 317 309 302 303 306 306 301 298 305 303 296 297 299 285 286 291 283 284 285 278 282 287
206 260 291 289 292 279 296 308 300 303 297 298 295 303 312 312 313 319 322 316 316 312 308 303 303 302 306 302 302 298 296 293 293 302 291 286 286 286 295 284 281 283 280
255 225 268 298 296 294 291 286 293 292 294 290 288 291 295 303 299 303 308 305 307 308 309 300 295 300 300 306 301 299 303 302 297 292 290 288 295 288 285 291 292 289 285
289 274 273 279 282 279 274 269 290 278 279 287 286 291 292 297 305 309 307 303 310 307 304 303 301 300 300 301 300 305 306 300 291 289 288 291 284 288 292 285 282 287 289
289 289 283 280 272 274 272 271 283 273 289 289 287 295 297 283 297 303 307 307 310 304 301 307 298 292 298 301 304 307 307 307 307 300 295 293 291 285 284 284 285 284 285
299 298 295 297 303 303 290 282 284 281 274 284 290 291 295 302 304 308 311 313 307 309 308 304 304 304 305 305 308 313 311 309 305 307 306 303 303 301 301 298 294 292 288
307 307 314 311 311 304 298 297 276 273 275 287 292 297 302 304 304 309 310 313 310 321 322 320 318 316 313 310 308 311 312 311 311 312 313 314 312 310 306 302 297 297 295
312 317 310 308 303 294 295 291 287 308 292 287 304 298 306 304 306 306 304 314 315 316 325 330 332 330 327 326 323 318 311 312 317 320 321 320 319 317 313 308 305 300 293
334 332 319 324 322 318 298 297 315 282 311 310 302 304 294 302 305 306 308 306 315 327 324 318 334 344 347 348 343 333 327 328 332 330 325 322 323 321 313 307 301 297 296
Height
1505 1508 1510 1511 1516 1520 1525 1527 1529 1531 1531 1529 1523 1525 1528 1536 1539 1541 1543 1542 1544 1542 1543 1542 1544 1546 1545 1546 1546 1546 1546 1547 1545 1544 1544 1542 1540 1539 1540 1539 1537 1534 1531
1497 1507 1508 1509 1511 1515 1520 1524 1526 1527 1529 1528 1527 1527 1530 1532 1533 1534 1536 1538 1539 1540 1540 1540 1540 1542 1541 1541 1541 1541 1541 1541 1541 1539 1538 1537 1534 1533 1533 1534 1535 1534 1531
1477 1506 1510 1512 1511 1513 1515 1520 1523 1524 1524 1524 1525 1526 1525 1527 1528 1529 1530 1533 1535 1536 1537 1536 1536 1537 1536 1536 1537 1537 1536 1536 1536 1535 1533 1532 1530 1529 1529 1526 1528 1527 1526
1495 1489 1503 1507 1510 1512 1514 1515 1517 1519 1521 1521 1522 1524 1523 1524 1525 1524 1523 1525 1529 1532 1532 1533 1534 1533 1532 1532 1533 1534 1531 1529 1531 1530 1529 1527 1527 1527 1524 1523 1525 1523 1520
1489 1490 1481 1491 1507 1512 1518 1519 1520 1519 1518 1519 1520 1521 1522 1522 1524 1525 1524 1522 1522 1527 1530 1530 1532 1529 1528 1529 1528 1528 1526 1525 1527 1526 1524 1523 1522 1523 1521 1520 1518 1518 1516
1488 1495 1493 1502 1504 1509 1512 1519 1518 1518 1518 1517 1518 1521 1522 1524 1520 1520 1523 1523 1517 1523 1525 1525 1525 1524 1524 1524 1523 1520 1520 1519 1518 1518 1518 1516 1515 1515 1516 1516 1514 1512 1509
1491 1494 1494 1500 1500 1505 1506 1519 1512 1522 1518 1520 1520 1521 1520 1518 1518 1518 1518 1519 1515 1517 1521 1521 1522 1523 1520 1521 1520 1516 1515 1515 1514 1512 1511 1509 1507 1508 1508 1507 1507 1505 1503
1494 1497 1498 1500 1501 1503 1507 1513 1519 1518 1517 1517 1519 1520 1517 1515 1515 1515 1513 1512 1511 1514 1513 1518 1516 1515 1514 1513 1512 1511 1510 1509 1509 1508 1507 1506 1503 1503 1502 1501 1498 1497 1496
1498 1500 1502 1504 1505 1507 1509 1512 1515 1516 1514 1516 1516 1516 1513 1509 1511 1512 1511 1508 1509 1512 1514 1511 1512 1510 1507 1506 1507 1503 1502 1501 1502 1501 1499 1499 1496 1495 1494 1492 1491 1491 1489
1501 1501 1497 1502 1505 1507 1508 1511 1512 1514 1514 1515 1513 1513 1509 1507 1508 1508 1508 1508 1509 1508 1504 1506 1505 1504 1503 1502 1499 1496 1493 1494 1493 1490 1490 1490 1489 1486 1486 1485 1483 1483 1484
1501 1504 1497 1501 1504 1507 1509 1510 1511 1513 1512 1512 1511 1509 1507 1504 1504 1503 1504 1503 1504 1501 1501 1503 1504 1500 1496 1494 1491 1490 1489 1487 1484 1483 1482 1481 1481 1479 1480 1478 1474 1474 1474
1503 1502 1501 1503 1506 1508 1508 1508 1509 1509 1508 1508 1506 1505 1507 1504 1501 1500 1499 1500 1498 1497 1496 1497 1496 1492 1490 1489 1487 1485 1482 1481 1478 1478 1477 1476 1475 1474 1474 1473 1470 1468 1468
1502 1502 1502 1503 1505 1504 1506 1506 1507 1506 1507 1508 1508 1508 1506 1505 1503 1501 1499 1498 1496 1495 1494 1492 1489 1487 1485 1482 1480 1479 1477 1476 1473 1472 1472 1471 1470 1469 1468 1465 1464 1464 1461
1503 1503 1502 1503 1504 1503 1505 1507 1508 1508 1508 1507 1506 1505 1504 1504 1501 1499 1499 1497 1496 1493 1490 1489 1485 1481 1478 1477 1474 1473 1472 1472 1471 1469 1467 1466 1464 1462 1461 1461 1458 1457 1455
1504 1504 1504 1507 1506 1506 1506 1506 1506 1504 1503 1503 1503 1502 1502 1501 1496 1496 1495 1493 1491 1489 1486 1482 1479 1477 1475 1473 1471 1469 1467 1466 1465 1462 1459 1458 1457 1456 1455 1455 1453 1451 1449
1505 1506 1506 1507 1507 1507 1506 1506 1503 1503 1502 1500 1499 1498 1497 1496 1494 1493 1491 1489 1487 1485 1481 1478 1475 1473 1471 1469 1468 1466 1464 1462 1461 1458 1455 1453 1450 1450 1448 1447 1445 1445 1442
1504 1505 1506 1505 1506 1506 1505 1505 1504 1501 1499 1498 1496 1495 1495 1494 1492 1491 1489 1486 1482 1479 1476 1475 1472 1470 1468 1468 1466 1463 1460 1458 1456 1454 1451 1449 1449 1446 1444 1443 1442 1440 1436
1502 1503 1504 1505 1505 1505 1504 1504 1503 1502 1500 1498 1494 1494 1492 1491 1490 1488 1484 1480 1478 1477 1475 1472 1470 1465 1464 1462 1460 1457 1454 1453 1450 1448 1445 1442 1440 1439 1439 1437 1434 1432 1432
1503 1503 1504 1504 1503 1503 1503 1502 1501 1499 1497 1496 1496 1494 1491 1488 1486 1484 1481 1477 1475 1473 1470 1467 1465 1461 1459 1457 1455 1451 1447 1445 1443 1440 1439 1436 1435 1433 1431 1430 1428 1426 1426
1501 1501 1501 1502 1501 1500 1499 1499 1498 1497 1495 1494 1492 1490 1488 1485 1482 1479 1478 1476 1473 1469 1466 1463 1460 1456 1455 1451 1448 1445 1441 1438 1435 1433 1432 1430 1428 1427 1425 1423 1422 1420 1418
1498 1497 1497 1498 1497 1496 1496 1495 1494 1492 1490 1489 1487 1486 1484 1482 1478 1476 1474 1471 1468 1465 1460 1457 1453 1450 1448 1446 1443 1439 1435 1431 1429 1427 1425 1423 1422 1420 1419 1417 1415 1413 1411
1496 1496 1494 1491 1490 1489 1488 1489 1488 1487 1485 1484 1482 1481 1478 1477 1475 1472 1470 1467 1463 1460 1455 1451 1448 1445 1443 1440 1436 1432 1428 1426 1423 1420 1417 1416 1414 1413 1411 1410 1408 1406 1404
1494 1492 1490 1489 1486 1485 1485 1484 1482 1480 1478 1480 1478 1476 1473 1472 1471 1469 1466 1463 1458 1453 1448 1446 1443 1440 1437 1434 1431 1427 1424 1421 1418 1415 1412 1410 1408 1406 1405 1403 1401 1399 1397
1489 1487 1484 1483 1482 1480 1479 1478 1477 1476 1476 1475 1473 1472 1471 1470 1468 1465 1463 1459 1454 1448 1444 1441 1438 1435 1432 1429 1426 1423 1421 1418 1415 1412 1409 1406 1404 1402 1399 1396 1394 1392 1390
1484 1482 1482 1481 1479 1477 1475 1473 1472 1469 1471 1472 1469 1469 1467 1466 1465 1462 1460 1456 1451 1447 1443 1439 1435 1432 1429 1425 1422 1419 1417 1415 1412 1409 1406 1403 1400 1397 1394 1391 1388 1385 1383
1483 1481 1479 1478 1476 1474 1473 1472 1471 1470 1468 1468 1468 1465 1464 1463 1461 1459 1456 1454 1448 1445 1442 1439 1434 1431 1428 1424 1421 1418 1415 1413 1410 1407 1403 1399 1396 1392 1389 1385 1382 1379 1376